Current Version              Previous Version:    01  02  03  04  05  06  07  08  09  10  11  12  13  14  15  16  17  18  19  20  21  22  23  24  25  26  27  28  29  30  
   31  32  33  34  35  36  37  38  39  40  41  42  43  44  45  46  47  48  49  50  51  52  53  54  55  56  57  58  59  60  

[Printable]
942
ASUS44 KEWX 010202
RWRTX
SOUTH TEXAS REGIONAL WEATHER ROUNDUP
NATIONAL WEATHER SERVICE AUSTIN/SAN ANTONIO TX
900 PM CDT FRI OCT 31 2014

NOTE: "FAIR" INDICATED FEW OR NO CLOUDS BELOW 12,000 FEET WITH NO
SIGNIFICANT WEATHER AND/OR OBSTRUCTIONS TO VISIBILITY.

* - THESE STATIONS ARE NOT NWS OR FAA STATIONS...AND ARE NOT SUBJECT
    TO NWS AND FAA QUALITY CONTROL.

TXZ171-172-183>190-010300-
TEXAS HILL COUNTRY AND EDWARDS PLATEAU

CITY           SKY/WX    TMP DP  RH WIND       PRES   REMARKS
JUNCTION       CLEAR     59  32  36 N3        30.32R
*LLANO         CLEAR     57  39  51 NE3       30.34R
BURNET         CLEAR     58  40  51 NE7       30.33R
*HORSESHOE BAY CLEAR     59  39  46 CALM      30.31R
*KERRVILLE     CLEAR     59  38  47 NE6       30.30R
*FREDERICKSBRG CLEAR     55  41  59 NE5       30.30S
*ROCKSPRINGS   CLEAR     61  32  33 CALM      30.33R
*BOERNE STAGE  CLEAR     54  41  62 N3        30.30R
*CASTROVILLE   CLEAR     64  41  42 NE6       30.28R
HONDO          CLEAR     54  45  71 NE8       30.29R
*UVALDE        CLEAR     60  48  65 NE5       30.27R
DEL RIO        CLEAR     70  41  34 E6        30.25R
LAUGHLIN AFB   CLEAR     67  41  39 E3        30.26R
CARRIZO SPRGS  CLEAR     61  54  77 CALM      30.24R
$$

TXZ173-191>194-202-209-217>225-228-010300-
CENTRAL AND SOUTH CENTRAL TEXAS

CITY           SKY/WX    TMP DP  RH WIND       PRES   REMARKS
GEORGETOWN     CLEAR     55  39  54 N6        30.31R
AUSTIN/BERGSTM CLEAR     54  43  66 N8        30.29R
AUSTIN/MABRY   CLEAR     63  41  44 N6        30.30R
*AUSTIN/EXEC   CLOUDY    57  41  54 N8        30.30R
*LAGO VISTA    CLEAR     60  39  46 NE7       30.30S
SAN MARCOS     CLEAR     61  37  41 NE10      30.29R
NEW BRAUNFELS  CLEAR     62  41  46 NE9       30.26R
RANDOLPH AFB   CLEAR     62  40  43 NE5       30.27R
PT SAN ANTONIO CLEAR     63  41  45 N8        30.25R
SAN ANTONIO    PTCLDY    66  39  37 N9        30.27R
STINSON FIELD  CLEAR     66  41  40 NE5       30.25R
*PLEASANTON    CLEAR     64  44  48 NE5       30.26R
*LA GRANGE     CLEAR     62  44  50 N3        30.26R
*GIDDINGS      CLEAR     59  41  51 N3        30.32R
*GONZALES      CLEAR    N/A N/A N/A N6        30.26R
$$

TXZ163>164-176>182-195>201-210>213-226-227-235-010300-
SOUTHEAST TEXAS

CITY           SKY/WX    TMP DP  RH WIND       PRES   REMARKS
COLLEGE STN    CLEAR     60  42  51 N9        30.28R
*BRYAN         CLEAR     56  43  61 N5        30.29R
*CALDWELL      CLEAR     59  37  44 N6        30.32R
*CROCKETT      CLEAR     59  46  63 N6        30.32R
*BRENHAM       CLEAR     59  44  56 N6        30.28R
HUNTSVILLE     CLEAR     57  43  59 N5        30.27R
CONROE         CLEAR     57  44  62 N5        30.26R
HOUSTON BUSH   CLEAR     63  45  51 N9        30.25R
HOUSTON HOBBY  CLEAR     66  44  45 N15       30.23R
*HOUSTON SW AP CLEAR     63  45  52 N6        30.24R
PEARLAND       CLEAR     68  43  40 N9        30.24R
HOUSTON HOOKS  CLEAR     63  43  48 N9        30.25R
ELLINGTON FLD  CLEAR     68  41  37 N12       30.24R
SUGAR LAND     CLEAR     62  45  53 N8        30.24R
*HOUSTON EXEC  PTCLDY    55 N/A N/A N7        30.26R
*CLEVELAND MUN CLEAR     58  48  69 N3        30.25R
*WHARTON       CLEAR     64  42  44 N8        30.24R
*COLUMBUS      FAIR      61  42  51 N6        30.25R
$$

TXZ214>216-236>238-010300-
THE UPPER TEXAS COAST

CITY           SKY/WX    TMP DP  RH WIND       PRES   REMARKS
*ORANGE        CLEAR     60  47  64 N6        30.23R
PORT ARTHUR    CLEAR     63  47  55 N14       30.21R
GALVESTON      CLEAR     70  50  49 N21       30.22R
ANGLETON       CLEAR     58  45  62 N8        30.22R
*BAY CITY        N/A     64  45  48 N8        30.23R
PALACIOS       CLEAR     62  44  51 N9        30.22R
$$

TXZ229>234-239>247-010300-
TEXAS COASTAL BEND AND RIO GRANDE PLAINS

CITY           SKY/WX    TMP DP  RH WIND       PRES   REMARKS
VICTORIA       CLEAR     61  40  45 N8        30.25R
*BEEVILLE      CLEAR     66  44  45 N7        30.24R
ROCKPORT       CLEAR     71  44  37 N12       30.22R
*PORT ARANSAS  CLEAR     70  52  52 N8        30.21R
*PORT LAVACA   CLEAR     62  43  49 N8        30.23R
*INGLESIDE     CLEAR     66  50  55 NE5       30.20R
CORPUS CHRISTI PTCLDY    67  55  65 N7        30.22R
CORPUS NAS     CLEAR     74  48  39 N16       30.21R
*ROBSTOWN      NOT AVBL
ALICE          CLEAR     64  51  62 N7        30.22R
KINGSVILLE NAS CLEAR     62  57  83 N5        30.22R
COTULLA        CLEAR     67  46  47 NE7       30.25R
*FAITH RANCH   CLEAR     64  50  59 E6        30.26R
LAREDO         CLEAR     69  50  50 NE6       30.27R
$$

TXZ248>255-010300-
DEEP SOUTH TEXAS

CITY           SKY/WX    TMP DP  RH WIND       PRES   REMARKS
BROWNSVILLE    CLEAR     68  60  75 NW6       30.20R
PORT ISABEL    CLEAR     67  59  75 NE5       30.20R
*SOUTH PADRE   CLEAR     75  57  53 NE16      30.19R
HARLINGEN      CLEAR     64  58  80 NW5       30.21R
*HEBBRONVILLE  CLEAR     64  49  60 N6        30.25R
MCALLEN        CLEAR     72  56  57 NE6       30.22R
*WESLACO       CLEAR     65  58  77 CALM      30.22R
FALFURRIAS     CLEAR     65  53  63 N3        30.22R
EDINBURG       CLEAR     67  57  69 CALM      30.22R
*ZAPATA        CLEAR     66  61  84 NW5       30.23R
$$

TXZ213>215-236>238-242>244-246-247-251-254-255-010300-
CMAN STATIONS

STATION/POSITION TIME  TEMP    WIND        PRES    WAVE
                       AIR SEA DIR/SP/G            HT/PER
                 (UTC) (F)     (DEG/KT/KT) (MB)    (FT/S)
SABINE PASS      0100           10/ 11/ 17   N/A
SEA RIM ST PARK  0100   63     360/  8/  8 1023.0
NORTH JETTY/GLS  0100   69 74   40/ 17/ 19   N/A
EAGLE POINT      0100   69 74   20/ 13/ 19 1023.0
MORGANS POINT    0100   69     360/ 12/ 17 1023.1
MISSION/ARANSAS  0100           10/ 13     1023.0
PORT O`CONNOR    0100          360/ 18/ 21   N/A
PORT ARANSAS     0100   75 78   10/  8/  9 1023.1
MALAQUITE BEACH  0100   75 79  360/  7/  9 1021.8
BAFFIN BAY       0100   74 83   20/  7/  9 1022.5
PORT ISABEL      0100   76 78   10/ 12/ 15 1021.9
$$

GMZ080-GMZ150>470-010300-
OFFSHORE BUOY REPORTS

STATION/POSITION TIME  TEMP    WIND        PRES    WAVE
                       AIR SEA DIR/SP/G            HT/PER
                 (UTC) (F)     (DEG/KT/KT) (MB)    (FT/S)
20 E GALVESTON   0200   71 76   10/ 21/ 25 1021.8    4/ 5
90 E PT ARANSAS  0200   76 79  360/ 17/ 21 1022.1    4/ 5
35 NE PT MANSFLD 0200   77 80   20/ 16/ 21 1021.9    4/ 5
200 E PT ISABEL  0200   76 80   10/ 19/ 23 1020.0    5/ 5
$$